INTELSAT 22

Satellite information

Favourite Embed

Satellite Type and Status

PAYLOADIN ORBIT

Key statistics

Satellite INTELSAT 22 at a glance.

Uptime

4852

Days in orbit

Revolutions

≈ 1.0

Per day

Orbit

GEO

Geostationary Orbit

Inclination

0.0

Latest

Satellite identification and parameters

Extended collection of information and parameters for INTELSAT 22.

Object identification

Identified? True

Debris? False

Object name: INTELSAT 22

International designator: 2012-011A

Object number (NORAD): 38098

Object ID (CCSDS): 38098

Country: INTERNATIONAL TELECOMMUNICATIONS SATELLITE ORGANIZATION (INTELSAT) (ITSO)

Current information (Y/N): Y

RCS size: LARGE

Orbital parameters

Period: 1436.1 minutes

Inclination: 0.0246 deg

SMA: 42164.789 km

Apoapsis: 35793.704 km

Periapsis: 35779.604 km

RAAN: 65.6194 deg

Eccentricy: 0.0001672

Argument of periapsis: 45.0082 deg

Mean anomaly: 68.7508 deg

Mean motion: 1.0027158 rev/day

Mean motion (dot): -0.00000042 rev/day2

B* drag term: 0.0 1/REarth

Two-line elements (TLE)

Creation date: July 6, 2025, 6:05 p.m.

Reference frame: TEME

Reference center: EARTH

Epoch: July 6, 2025, 12:10 p.m. UTC

TLE line 0: 0 INTELSAT 22

TLE line 1: 1 38098U 12011A 25187.50710363 -.00000042 00000-0 00000-0 0 9998

TLE line 2: 2 38098 0.0246 65.6194 0001672 45.0082 68.7508 1.00271580 3728

Live tracking on map

Real-time ground track for satellite INTELSAT 22.

In-orbit conjunctions

There are no conjunctions computed for INTELSAT 22, at the moment. Check back to stay up to date, as we update our databases every day.

Go to all conjunctions

Associated space launch

INTELSAT 22 was lifted into orbit during the mission ‘Proton-M / Briz-M Enhanced | Intelsat 22’, on board a Proton-M space rocket.

The launch took place on March 25, 2012, 12:10 p.m. from 200/39 (200L).

For more information about the launch, click the button.

Launch to space Proton-M / Briz-M Enhanced | Intelsat 22
Proton-M / Briz-M Enhanced | Intelsat 22

Agency: N/A

Status: Launch Successful

Launch date: March 25, 2012, 12:10 p.m. UTC

Rocket: Proton-M

Launch pad: 200/39 (200L)

Location: Baikonur Cosmodrome, Republic of Kazakhstan

...

Latest news about this satellite

There are no fresh news available about this satellite. Check back as we update our databases every day.


Newsletter sign-up

Weekly statistics, charts and insights to help you stay on top of the space industry.